Regional Weather Roundup
Issued by NWS Sioux Falls, SD

Home | Current Version | Previous Version | Text Only | Print | Product List | Glossary Off
Versions: 1 2 3 4 5 6 7 8 9 10 11 12 13 14 15 16 17 18 19 20 21 22 23 24 25 26 27 28 29 30 31 32 33 34 35 36 37 38 39 40 41 42 43 44 45 46 47 48 49 50

618
ASUS43 KFSD 231910
RWRFSD

WEATHER ROUNDUP FOR SE SOUTH DAKOTA/SW MINNESOTA/NW IOWA
NATIONAL WEATHER SERVICE SIOUX FALLS SD
200 PM CDT MON OCT 23 2017

NOTE: "FAIR" INDICATES FEW OR NO CLOUDS BELOW 12,000 FEET WITH NO
SIGNIFICANT WEATHER AND OR OBSTRUCTIONS TO VISIBILITY.


SDZ038>040-050-052>070-232000-
SOUTHEAST SOUTH DAKOTA

CITY           SKY/WX    TMP DP  RH WIND       PRES   REMARKS
BROOKINGS      CLOUDY    49  36  61 NW26G33   29.99R
CHAMBERLAIN    PTSUNNY   58  34  40 NW21G37   30.14S
HURON          MOSUNNY   57  32  38 NW26G33   30.06S
MADISON        CLOUDY    50  36  57 N29G43    30.01R
MITCHELL       MOSUNNY   58  31  35 NW26G40   30.08R
SIOUX FALLS    CLOUDY    54  35  48 NW30G40   29.98S
WINNER         MOCLDY    60  33  36 NW30G43   30.17S
YANKTON        PTSUNNY   57  34  41 NW33G39   30.03S
$$

MNZ071-072-080-081-089-090-097-098-232000-
SOUTHWEST MINNESOTA

CITY           SKY/WX    TMP DP  RH WIND       PRES   REMARKS
FAIRMONT       CLOUDY    54  37  52 NW31G38   29.87R
JACKSON        CLOUDY    52  32  46 NW30G38   29.90S
LUVERNE        CLOUDY    52  32  46 NW24G36   29.97S
MARSHALL       LGT RAIN  47  39  74 NW26G39   29.94R
MONTEVIDEO     CLOUDY    48  37  66 N18G31    29.93R
PIPESTONE      CLOUDY    48  36  61 NW28G40   29.97R
REDWOOD FALLS  CLOUDY    49  38  65 NW17G28   29.90R
TRACY          CLOUDY    49  40  69 NW18G29   29.94R
WORTHINGTON    CLOUDY    51  36  56 NW29G35   29.93R
$$

IAZ001>003-012>014-020>022-031-032-NEZ013-014-SDZ071-232000-
NORTHWEST IOWA

CITY           SKY/WX    TMP DP  RH WIND       PRES   REMARKS
CHEROKEE       CLOUDY    56  36  47 NW15G25   29.94S
DENISON        MOSUNNY   61  36  39 NW25G38   29.94F
ESTHERVILLE    CLOUDY    54  36  50 NW24G38   29.89R
LE MARS        CLOUDY    57  34  41 NW21G37   29.99R
ORANGE CITY    CLOUDY    55  39  54 NW20G30   29.97R
SHELDON        CLOUDY    54  34  47 NW17G33   29.94R
SIOUX CITY     MOSUNNY   60  36  40 NW32G44   29.97S
SPENCER        LGT RAIN  55  36  48 NW23G37   29.92R
STORM LAKE     SUNNY     57  36  44 NW29G41   29.92S
$$

ABBREVIATIONS USED IN REMARKS
   TC - TEMPERATURE IN CELSIUS
  WCI - WIND CHILL INDEX
   HX - HEAT INDEX
  VSB - VISIBILITY





USA.gov is the U.S. government's official web portal to all federal, state and local government web resources and services.